15min,AgWx,beryljct,423,06FEB2020:00:00:00,16.1,12.79,16.4,15.7,14.9,15.7,14.7,87,88,85,0.270,11.8,12.7,11.1,1.513,2.4,204,10,3.6,-0.00007,-0.00009,31.7,33.6,20,0,.,.,8.62,0.00,0.00
15min,AgWx,beryljct,423,06FEB2020:00:15:00,15.8,12.75,16.1,15.7,15.8,16.1,15.6,86,88,86,0.268,12.4,12.9,12.2,0,0.3,210,0.0,1.6,-0.00015,-0.00022,31.7,33.6,19,0,.,.,8.63,0.01,0.00
15min,AgWx,beryljct,423,06FEB2020:00:30:00,15.6,12.76,13.8,14.1,15.3,16.1,14.0,86,87,84,0.246,11.7,12.7,10.4,0,0.8,135,25,3.4,-0.00012,-0.00017,31.8,33.6,19,0,.,.,8.62,0.00,0.00
15min,AgWx,beryljct,423,06FEB2020:00:45:00,15.3,12.75,15.2,14.3,14.1,14.4,13.8,88,89,86,0.258,11.2,11.6,10.4,0,0.2,161,2.3,2.1,-0.00014,-0.00022,31.8,33.6,19,0,.,.,8.62,0.00,0.00
15min,AgWx,beryljct,423,06FEB2020:01:00:00,15.1,12.74,14.7,14.1,14.2,14.8,13.9,88,89,87,0.252,11.3,12.0,10.9,3.113,2.5,121,24,3.6,-0.00007,-0.00008,31.8,33.6,19,0,.,.,8.62,0.00,0.00
15min,AgWx,beryljct,423,06FEB2020:01:15:00,15.0,12.73,13.2,13.1,13.7,14.3,13.1,88,88,87,0.241,10.7,11.3,10.1,2.214,2.6,172,7.9,3.5,-0.00007,-0.00008,31.7,33.6,20,0,.,.,8.63,0.01,0.00
15min,AgWx,beryljct,423,06FEB2020:01:30:00,14.7,12.72,14.5,13.5,12.9,13.5,12.7,88,89,87,0.251,10.0,11.0,9.7,2.587,2.8,195,20,3.5,-0.00006,-0.00007,31.8,33.6,19,0,.,.,8.63,0.00,0.00
15min,AgWx,beryljct,423,06FEB2020:01:45:00,14.8,12.71,14.6,14.4,14.7,15.4,13.6,88,89,87,0.252,11.8,12.4,11.1,3.42,1.7,254,43,3.5,-0.00009,-0.00011,31.8,33.6,20,0,.,.,8.63,0.00,0.00
15min,AgWx,beryljct,423,06FEB2020:02:00:00,14.9,12.7,13.6,13.0,13.6,14.4,13.0,88,88,87,0.242,10.6,11.2,10.1,2.85,3.2,328,6.5,3.8,-0.00006,-0.00006,31.8,33.6,19,0,.,.,8.62,0.00,0.00
15min,AgWx,beryljct,423,06FEB2020:02:15:00,14.9,12.69,14.8,14.3,14.1,14.7,13.0,88,89,86,0.250,11.2,11.6,10.3,0.219,2.5,351,8.5,3.7,-0.00007,-0.00008,31.8,33.6,19,0,.,.,8.62,0.00,0.00
15min,AgWx,beryljct,423,06FEB2020:02:30:00,14.9,12.68,14.0,13.5,13.6,14.3,13.3,87,88,86,0.245,10.4,11.0,9.9,2.653,1.8,119,40,3.5,-0.00008,-0.00010,31.8,33.5,19,0,.,.,8.63,0.00,0.00
15min,AgWx,beryljct,423,06FEB2020:02:45:00,14.7,12.67,13.6,13.3,13.4,13.5,13.2,88,89,87,0.246,10.6,10.8,10.4,2.477,3.1,171,33,5.0,-0.00006,-0.00007,31.7,33.5,19,0,.,.,8.63,0.00,0.00
15min,AgWx,beryljct,423,06FEB2020:03:00:00,14.7,12.66,14.5,14.0,13.6,14.0,13.2,89,90,89,0.253,11.0,11.3,10.5,3.157,2.0,181,29,3.2,-0.00008,-0.00010,31.7,33.5,19,0,.,.,8.63,0.00,0.00
15min,AgWx,beryljct,423,06FEB2020:03:15:00,14.7,12.65,14.5,14.1,14.4,14.7,13.9,88,89,87,0.251,11.4,11.8,11.0,0.636,1.3,146,75,3.2,-0.00010,-0.00013,31.7,33.5,19,0,.,.,8.63,0.00,0.00
15min,AgWx,beryljct,423,06FEB2020:03:30:00,14.7,12.64,14.9,14.3,14.1,14.4,14.0,88,89,87,0.258,11.3,11.6,11.0,0,1.3,322,76,3.9,-0.00010,-0.00013,31.7,33.5,19,0,.,.,8.63,0.00,0.00
15min,AgWx,beryljct,423,06FEB2020:03:45:00,14.7,12.64,15.3,15.0,14.2,15.0,13.5,88,89,87,0.262,11.3,12.2,10.5,1.271,1.0,319,24,2.2,-0.00011,-0.00015,31.7,33.6,19,0,.,.,8.63,0.00,0.00
15min,AgWx,beryljct,423,06FEB2020:04:00:00,14.7,12.63,14.7,14.1,14.6,15.5,14.0,86,88,85,0.252,11.3,12.2,10.4,1.535,0.7,337,19,1.5,-0.00012,-0.00017,31.7,33.6,19,0,.,.,8.63,0.00,0.00
15min,AgWx,beryljct,423,06FEB2020:04:15:00,14.9,12.62,16.5,16.0,15.1,16.1,14.2,88,88,86,0.269,12.1,12.9,11.2,0,1.1,306,15,3.5,-0.00011,-0.00014,31.7,33.5,19,0,.,.,8.63,0.00,0.00
15min,AgWx,beryljct,423,06FEB2020:04:30:00,15.1,12.61,15.0,14.7,15.0,16.1,14.7,87,88,85,0.260,11.8,12.7,11.4,1.469,3.1,107,23,4.7,-0.00006,-0.00007,31.7,33.5,19,0,.,.,8.62,0.00,0.00
15min,AgWx,beryljct,423,06FEB2020:04:45:00,15.1,12.61,14.6,14.0,14.2,14.7,13.8,88,89,88,0.252,11.4,11.9,11.0,2.74,2.5,167,22,3.2,-0.00007,-0.00008,31.7,33.5,19,0,.,.,8.63,0.00,0.00
15min,AgWx,beryljct,423,06FEB2020:05:00:00,15.1,12.61,15.5,15.0,14.5,15.0,14.0,88,88,87,0.262,11.5,12.0,11.0,3.179,3.0,194,8.9,4.3,-0.00006,-0.00007,31.7,33.6,19,0,.,.,8.62,0.00,0.00
15min,AgWx,beryljct,423,06FEB2020:05:15:00,15.1,12.6,16.4,15.6,15.0,15.6,14.7,87,87,87,0.267,11.9,12.4,11.5,2.324,2.0,197,0.1,3.2,-0.00008,-0.00010,31.6,33.5,19,0,.,.,8.63,0.00,0.00
15min,AgWx,beryljct,423,06FEB2020:05:30:00,15.4,12.6,17.4,17.3,16.6,17.5,15.6,84,87,80,0.265,12.5,12.8,12.1,0,1.8,197,0.1,3.3,-0.00009,-0.00011,31.6,33.5,19,0,.,.,8.63,0.00,0.00
15min,AgWx,beryljct,423,06FEB2020:05:45:00,15.8,12.6,16.8,16.4,16.9,17.6,16.3,83,86,80,0.274,12.5,13.0,12.0,0,0.6,88,34,3.0,-0.00013,-0.00019,31.6,33.5,19,0,.,.,8.63,0.00,0.00
15min,AgWx,beryljct,423,06FEB2020:06:00:00,16.0,12.6,17.6,16.8,16.4,16.8,16.1,87,87,86,0.281,13.1,13.6,12.9,1.008,1.0,72,58,2.8,-0.00012,-0.00016,31.6,33.5,19,0,.,.,8.63,0.00,0.00
15min,AgWx,beryljct,423,06FEB2020:06:15:00,16.2,12.59,16.5,16.4,17.0,17.2,16.4,86,87,86,0.277,13.6,13.8,13.2,2.784,1.6,289,27,3.5,-0.00010,-0.00013,31.6,33.5,19,0,.,.,8.63,0.00,0.00
15min,AgWx,beryljct,423,06FEB2020:06:30:00,16.2,12.58,16.4,15.4,16.1,16.6,15.4,86,87,85,0.262,12.6,13.3,11.9,0.943,1.5,332,5.5,3.1,-0.00010,-0.00012,31.6,33.5,19,0,.,.,8.63,0.00,0.00
15min,AgWx,beryljct,423,06FEB2020:06:45:00,15.9,12.58,14.8,14.5,15.1,15.7,14.5,87,88,86,0.257,11.8,12.3,11.3,2.565,1.0,186,70,3.8,-0.00011,-0.00015,31.5,33.5,19,0,.,.,8.63,0.00,0.00
15min,AgWx,beryljct,423,06FEB2020:07:00:00,15.6,12.58,15.1,14.4,14.3,14.5,14.1,88,89,88,0.258,11.4,11.6,11.3,1.162,1.8,116,4.8,3.8,0.00003,0.00004,31.5,33.5,19,0,.,.,8.63,0.00,0.00
15min,AgWx,beryljct,423,06FEB2020:07:15:00,15.3,12.58,14.9,14.6,14.4,14.7,14.0,88,88,87,0.259,11.5,11.8,11.0,2.696,1.4,357,41,3.1,0.00002,0.00004,31.5,33.5,19,0,.,.,8.63,0.00,0.00
15min,AgWx,beryljct,423,06FEB2020:07:30:00,15.3,12.58,14.2,13.8,14.0,14.6,13.8,87,88,87,0.248,10.9,11.6,10.7,0,1.5,2.1,22,2.5,0.00003,0.00004,31.5,33.5,19,2,.,.,8.63,0.00,0.00
15min,AgWx,beryljct,423,06FEB2020:07:45:00,15.1,12.59,15.1,14.5,14.0,14.5,13.8,88,88,87,0.258,11.0,11.7,10.7,1.469,1.3,47,60,3.2,0.00004,0.00005,31.5,33.5,19,6,.,.,8.63,0.01,0.00
15min,AgWx,beryljct,423,06FEB2020:08:00:00,15.1,12.67,15.3,14.7,14.6,14.7,14.4,89,89,88,0.261,11.8,11.9,11.6,3.003,1.7,147,57,5.2,0.00008,0.00010,31.5,33.5,19,23,.,.,8.63,0.00,0.00
15min,AgWx,beryljct,423,06FEB2020:08:15:00,15.5,13.17,16.7,16.3,15.5,16.3,14.7,88,89,88,0.277,12.7,13.2,11.9,1.622,1.0,176,52,3.0,0.00019,0.00022,31.4,33.5,19,66,.,.,8.63,0.00,0.00
15min,AgWx,beryljct,423,06FEB2020:08:30:00,17.0,13.91,18.0,18.0,17.1,18.0,16.3,87,88,85,0.291,13.8,14.4,13.2,4.976,1.4,82,4.1,5.0,0.00032,0.00036,31.4,33.5,19,128,.,.,8.63,0.00,0.00
15min,AgWx,beryljct,423,06FEB2020:08:45:00,19.2,14.95,21.2,20.2,19.2,20.4,18.0,84,86,80,0.301,15.0,15.5,14.3,3.42,3.0,154,33,4.8,0.00044,0.00051,31.4,33.5,20,176,.,.,8.62,0.00,0.00
15min,AgWx,beryljct,423,06FEB2020:09:00:00,21.7,14.96,22.5,22.4,21.5,22.6,20.2,82,83,81,0.336,16.8,17.9,15.2,6.664,4.7,148,10,6.8,0.00057,0.00067,31.4,33.5,20,219,.,.,8.63,0.00,0.00
15min,AgWx,beryljct,423,06FEB2020:09:15:00,24.2,14.83,25.4,25.3,24.0,25.3,22.5,81,82,80,0.377,19.1,20.4,17.7,6.577,6.5,146,7.9,7.9,0.00070,0.00083,31.4,33.5,21,265,.,.,8.62,0.00,0.00
15min,AgWx,beryljct,423,06FEB2020:09:30:00,26.4,14.88,28.6,27.9,26.8,27.9,25.4,78,81,75,0.391,20.8,21.2,20.4,3.946,5.7,146,7.8,7.6,0.00078,0.00094,31.3,33.5,20,251,.,.,8.62,0.00,0.00
15min,AgWx,beryljct,423,06FEB2020:09:45:00,28.8,14.87,30.9,30.3,29.2,30.3,28.0,75,76,72,0.420,22.2,23.0,21.2,2.083,3.2,129,29,5.1,0.00114,0.00129,31.3,33.5,19,350,.,.,8.62,0.00,0.00
15min,AgWx,beryljct,423,06FEB2020:10:00:00,32.1,14.71,33.9,32.4,31.6,32.4,30.4,71,74,70,0.437,23.4,24.3,22.8,3.508,2.2,66,39,4.5,0.00139,0.00155,31.3,33.5,19,398,.,.,8.62,0.00,0.00
15min,AgWx,beryljct,423,06FEB2020:10:15:00,35.4,14.65,36.4,35.2,33.9,35.3,32.5,67,71,64,0.444,24.1,24.9,23.5,4.319,3.2,33,17,4.6,0.00168,0.00191,31.3,33.5,20,467,.,.,8.62,0.00,0.00
15min,AgWx,beryljct,423,06FEB2020:10:30:00,37.9,14.65,36.0,35.3,35.0,35.4,34.6,63,64,62,0.438,23.7,24.5,23.1,1.513,2.1,25,49,4.6,0.00144,0.00163,31.3,33.4,20,356,.,.,8.62,0.00,0.00
15min,AgWx,beryljct,423,06FEB2020:10:45:00,39.1,14.63,35.1,34.6,34.8,35.4,34.6,63,65,62,0.437,23.7,24.2,23.1,1.447,3.6,78,14,6.5,0.00134,0.00158,31.3,33.5,19,326,.,.,8.62,0.00,0.00
15min,AgWx,beryljct,423,06FEB2020:11:00:00,39.9,14.64,36.1,36.7,36.0,36.9,34.6,64,66,63,0.469,25.1,26.4,23.9,1.688,2.5,93,19,5.6,0.00187,0.00210,31.3,33.4,19,480,.,.,8.62,0.00,0.00
15min,AgWx,beryljct,423,06FEB2020:11:15:00,41.4,14.62,39.1,39.1,38.1,39.1,36.6,63,64,61,0.506,26.5,27.5,25.4,2.214,2.2,142,43,4.2,0.00186,0.00208,31.3,33.4,20,443,.,.,8.62,0.00,0.00
15min,AgWx,beryljct,423,06FEB2020:11:30:00,42.3,14.14,42.7,42.0,40.3,42.3,39.0,62,63,59,0.535,28.2,29.6,27.0,6.489,3.9,81,14,9.1,0.00174,0.00204,31.3,33.5,19,387,.,.,8.62,0.00,0.00
15min,AgWx,beryljct,423,06FEB2020:11:45:00,43.4,14.1,44.3,44.4,42.9,44.4,42.0,59,60,57,0.572,29.5,30.6,28.9,0.592,3.9,95,14,7.3,0.00203,0.00237,31.3,33.4,19,434,.,.,8.61,0.00,0.00
15min,AgWx,beryljct,423,06FEB2020:12:00:00,44.9,14.09,47.0,45.7,44.9,45.7,44.3,55,57,53,0.561,29.7,30.2,29.2,0,0.5,223,48,2.3,0.00205,0.00222,31.3,33.4,19,430,.,.,8.61,0.00,0.00
15min,AgWx,beryljct,423,06FEB2020:12:15:00,46.6,14.06,46.0,46.3,46.0,46.4,45.6,53,55,52,0.560,30.0,31.2,29.6,0,1.8,104,37,5.0,0.00196,0.00222,31.4,33.4,19,390,.,.,8.61,0.00,0.00
15min,AgWx,beryljct,423,06FEB2020:12:30:00,47.6,14.11,47.1,46.9,46.6,47.1,46.1,52,53,51,0.563,30.0,30.9,29.6,1.951,0.9,286,47,2.6,0.00233,0.00255,31.3,33.4,19,485,.,.,8.61,0.00,0.00
15min,AgWx,beryljct,423,06FEB2020:12:45:00,49.2,14.02,48.4,48.3,47.8,48.4,46.9,50,52,49,0.564,30.1,31.6,29.5,0,1.3,11,16,3.8,0.00248,0.00275,31.3,33.4,19,507,.,.,8.61,0.00,0.00
15min,AgWx,beryljct,423,06FEB2020:13:00:00,50.6,14,50.1,49.2,49.0,49.7,48.3,48,50,47,0.582,30.3,31.4,29.4,0,1.4,175,63,4.0,0.00231,0.00258,31.4,33.4,19,463,.,.,8.61,0.00,0.00
15min,AgWx,beryljct,423,06FEB2020:13:15:00,51.6,13.96,52.2,50.8,49.6,50.8,49.0,48,49,46,0.591,30.4,31.6,29.8,0.855,1.6,114,22,4.6,0.00264,0.00296,31.3,33.4,19,538,.,.,8.61,0.00,0.00
15min,AgWx,beryljct,423,06FEB2020:13:30:00,53.3,13.94,50.8,51.3,51.0,51.6,50.6,45,47,43,0.558,30.4,31.4,29.6,0.789,1.7,86,36,4.3,0.00312,0.00349,31.4,33.4,19,620,.,.,8.60,0.00,0.00
15min,AgWx,beryljct,423,06FEB2020:13:45:00,54.9,13.92,52.7,52.4,51.9,52.7,51.0,42,44,41,0.558,29.7,31.1,28.7,1.907,2.5,297,81,7.6,0.00309,0.00353,31.4,33.4,19,604,.,.,8.60,0.00,0.00
15min,AgWx,beryljct,423,06FEB2020:14:00:00,56.2,13.86,52.2,52.5,52.6,53.1,52.1,41,43,40,0.542,29.7,30.8,28.9,2.236,1.9,344,41,4.5,0.00277,0.00315,31.4,33.4,19,543,.,.,8.60,0.00,0.00
15min,AgWx,beryljct,423,06FEB2020:14:15:00,56.8,13.85,53.2,53.9,53.3,54.2,52.4,40,41,39,0.560,29.7,30.7,28.7,11.6,5.6,297,39,12.1,0.00249,0.00317,31.4,33.4,19,442,.,.,8.60,0.00,0.00
15min,AgWx,beryljct,423,06FEB2020:14:30:00,56.4,13.91,55.0,54.4,53.7,54.5,53.3,40,41,38,0.551,29.8,30.7,28.9,9.82,9.7,279,15,14.9,0.00276,0.00375,31.4,33.4,19,458,.,.,8.60,0.00,0.00
15min,AgWx,beryljct,423,06FEB2020:14:45:00,56.9,13.86,55.3,55.1,55.1,55.7,54.5,38,39,37,0.557,30.0,31.1,29.1,12.63,10.0,281,12,15.0,0.00328,0.00436,31.4,33.4,19,542,.,.,8.60,0.00,0.00
15min,AgWx,beryljct,423,06FEB2020:15:00:00,57.0,13.88,53.1,53.1,54.3,55.3,53.0,38,40,37,0.545,29.4,30.3,28.8,12.34,11.2,272,15,14.4,0.00238,0.00347,31.4,33.4,19,326,.,.,8.60,0.00,0.00
15min,AgWx,beryljct,423,06FEB2020:15:15:00,55.7,13.93,54.9,54.2,53.1,54.3,52.4,40,41,38,0.544,29.2,30.0,28.8,10.26,12.2,265,8.5,16.1,0.00221,0.00330,31.4,33.4,19,307,.,.,8.60,0.00,0.00
15min,AgWx,beryljct,423,06FEB2020:15:30:00,55.8,13.88,54.4,54.2,54.4,54.9,54.1,38,39,37,0.546,29.4,30.2,28.7,13.24,13.1,263,10,17.3,0.00272,0.00393,31.5,33.4,19,388,.,.,8.59,0.00,0.00
15min,AgWx,beryljct,423,06FEB2020:15:45:00,55.6,13.91,53.8,53.8,53.8,54.3,53.5,38,39,38,0.534,29.1,29.9,28.7,16.24,14.2,268,9.8,18.0,0.00227,0.00350,31.5,33.4,19,281,.,.,8.59,0.00,0.00
15min,AgWx,beryljct,423,06FEB2020:16:00:00,55.0,13.94,53.1,52.9,53.4,53.8,52.9,39,40,37,0.537,28.8,29.2,28.3,12.76,12.8,265,8.2,16.1,0.00180,0.00292,31.5,33.4,19,192,.,.,8.59,0.00,0.00
15min,AgWx,beryljct,423,06FEB2020:16:15:00,54.1,13.98,52.9,52.5,52.6,53.0,52.2,40,40,39,0.532,28.7,29.0,28.5,12.8,11.3,259,8.8,13.6,0.00147,0.00246,31.5,33.4,19,154,.,.,8.59,0.00,0.00
15min,AgWx,beryljct,423,06FEB2020:16:30:00,53.4,13.99,52.8,52.5,52.5,52.7,52.4,39,40,38,0.520,28.5,28.9,27.9,11.55,11.5,253,5.7,14.2,0.00153,0.00253,31.5,33.4,19,161,.,.,8.59,0.00,0.00
15min,AgWx,beryljct,423,06FEB2020:16:45:00,52.9,13.99,52.6,52.5,52.5,52.8,52.2,38,39,37,0.504,27.5,28.1,27.0,12.41,11.1,266,8.0,17.3,0.00138,0.00238,31.5,33.4,19,130,.,.,8.59,0.00,0.00
15min,AgWx,beryljct,423,06FEB2020:17:00:00,52.6,14,52.0,52.0,52.2,52.5,52.0,38,38,37,0.505,27.3,27.5,27.1,11.05,12.8,275,8.7,19.4,0.00152,0.00261,31.5,33.4,19,132,.,.,8.59,0.00,0.00
15min,AgWx,beryljct,423,06FEB2020:17:15:00,52.1,13.34,49.8,50.8,51.6,52.1,50.8,39,42,38,0.529,27.3,28.5,26.8,7.892,8.5,295,16,12.9,0.00057,0.00071,31.5,33.4,19,83,.,.,8.59,0.00,0.00
15min,AgWx,beryljct,423,06FEB2020:17:30:00,50.8,13.25,46.2,46.4,47.9,50.6,46.3,54,57,43,0.615,31.9,32.6,28.8,4.362,5.8,342,10,8.7,0.00029,0.00038,31.5,33.4,19,60,.,.,8.59,0.00,0.00
15min,AgWx,beryljct,423,06FEB2020:17:45:00,49.0,13.14,44.6,44.8,45.7,46.3,44.8,59,60,57,0.608,32.1,32.5,31.8,5.787,6.3,4.8,8.5,8.8,0.00020,0.00026,31.5,33.4,19,26,.,.,8.59,0.00,0.00
15min,AgWx,beryljct,423,06FEB2020:18:00:00,46.9,13.1,39.8,41.5,43.0,44.7,41.5,62,65,60,0.572,31.0,31.8,30.3,4.056,4.2,311,60,6.8,0.00006,0.00010,31.6,33.3,19,9,.,.,8.60,0.00,0.00
15min,AgWx,beryljct,423,06FEB2020:18:15:00,44.3,13.08,43.0,42.5,40.8,42.5,39.0,66,69,64,0.591,30.3,31.5,28.8,3.442,5.3,235,14,7.8,0.00007,0.00010,31.6,33.3,19,3,.,.,8.60,0.00,0.00
15min,AgWx,beryljct,423,06FEB2020:18:30:00,42.8,13.06,41.5,42.1,43.1,43.8,42.1,61,64,60,0.552,30.8,31.1,29.5,2.368,3.0,263,9.9,5.1,-0.00001,0.00001,31.6,33.3,19,0,.,.,8.60,0.01,0.00
15min,AgWx,beryljct,423,06FEB2020:18:45:00,41.6,13.04,35.4,36.5,40.5,42.2,36.0,65,72,61,0.521,29.5,31.0,25.9,2.455,1.7,333,35,3.1,-0.00011,-0.00013,31.6,33.3,19,0,.,.,8.60,0.00,0.00
15min,AgWx,beryljct,423,06FEB2020:19:00:00,39.9,13.03,36.0,35.3,36.6,39.5,34.8,72,76,66,0.522,28.4,30.5,27.0,3.223,3.5,257,8.8,4.8,-0.00003,-0.00002,31.6,33.3,19,0,.,.,8.61,0.00,0.00
15min,AgWx,beryljct,423,06FEB2020:19:15:00,38.2,13.01,32.7,32.9,34.2,36.0,32.9,77,78,73,0.487,27.6,28.9,26.4,4.253,1.0,246,15,4.4,-0.00016,-0.00022,31.6,33.3,19,0,.,.,8.61,0.00,0.00
15min,AgWx,beryljct,423,06FEB2020:19:30:00,36.9,13,32.6,32.5,33.1,33.9,32.5,79,80,77,0.501,27.2,27.9,26.5,2.828,3.5,206,11,4.4,-0.00005,-0.00005,31.6,33.3,19,0,.,.,8.61,0.00,0.00
15min,AgWx,beryljct,423,06FEB2020:19:45:00,35.9,13,34.3,34.3,34.4,36.1,32.4,77,81,73,0.506,28.0,29.3,27.1,1.973,2.9,246,17,4.7,-0.00007,-0.00007,31.6,33.3,19,0,.,.,8.61,0.00,0.00
15min,AgWx,beryljct,423,06FEB2020:20:00:00,35.3,12.97,35.2,35.4,34.6,35.6,34.1,76,77,74,0.517,27.9,28.5,27.4,2.631,1.9,229,29,2.9,-0.00011,-0.00013,31.6,33.3,19,0,.,.,8.61,0.00,0.00
15min,AgWx,beryljct,423,06FEB2020:20:15:00,35.0,12.97,35.2,34.3,34.1,35.4,33.4,75,76,73,0.505,26.9,28.0,26.2,5.108,5.9,182,10,9.1,0.00002,0.00004,31.6,33.3,19,0,.,.,8.62,0.00,0.00
15min,AgWx,beryljct,423,06FEB2020:20:30:00,34.7,12.96,34.7,33.5,34.3,35.5,33.2,75,78,73,0.503,27.2,28.3,26.1,3.025,2.8,178,44,5.1,-0.00007,-0.00007,31.6,33.3,19,0,.,.,8.61,0.00,0.00
15min,AgWx,beryljct,423,06FEB2020:20:45:00,34.3,12.94,32.0,33.2,34.1,35.1,32.9,76,78,72,0.485,27.2,28.1,25.3,4.143,3.0,121,26,6.2,-0.00006,-0.00007,31.6,33.3,20,0,.,.,8.62,0.01,0.00
15min,AgWx,beryljct,423,06FEB2020:21:00:00,34.1,12.95,32.4,32.8,34.0,34.8,32.8,76,79,75,0.494,27.3,28.6,26.2,3.113,2.6,123,46,5.8,-0.00008,-0.00008,31.6,33.3,19,0,.,.,8.61,0.00,0.00
15min,AgWx,beryljct,423,06FEB2020:21:15:00,33.5,12.92,30.9,30.7,31.3,32.7,30.7,82,85,79,0.479,26.5,27.2,25.7,3.814,3.1,151,46,5.9,-0.00007,-0.00008,31.6,33.3,19,0,.,.,8.62,0.00,0.00
15min,AgWx,beryljct,423,06FEB2020:21:30:00,33.0,12.93,32.8,31.6,33.0,35.1,30.7,75,83,69,0.459,26.0,28.0,24.7,1.929,2.5,145,40,4.4,-0.00008,-0.00009,31.6,33.3,19,0,.,.,8.62,0.01,0.00
15min,AgWx,beryljct,423,06FEB2020:21:45:00,32.7,12.92,31.4,31.7,32.4,33.9,30.9,76,78,72,0.452,25.5,26.9,24.1,1.907,3.1,136,31,6.2,-0.00005,-0.00005,31.7,33.3,19,0,.,.,8.62,0.00,0.00
15min,AgWx,beryljct,423,06FEB2020:22:00:00,32.4,12.92,34.9,33.0,32.3,34.7,31.5,75,77,69,0.476,25.2,26.5,23.5,1.513,1.5,210,19,3.2,-0.00012,-0.00015,31.7,33.3,19,0,.,.,8.62,0.00,0.00
15min,AgWx,beryljct,423,06FEB2020:22:15:00,31.9,12.89,36.3,33.2,32.6,33.6,31.2,73,75,70,0.450,24.8,26.0,23.2,3.968,1.9,216,12,4.1,-0.00010,-0.00012,31.7,33.3,19,0,.,.,8.62,0.01,0.00
15min,AgWx,beryljct,423,06FEB2020:22:30:00,32.4,12.9,36.5,36.3,38.7,41.5,33.4,58,71,53,0.428,25.3,26.7,23.1,6.05,4.5,243,17,6.2,0.00007,0.00011,31.7,33.3,19,0,.,.,8.62,0.00,0.00
15min,AgWx,beryljct,423,06FEB2020:22:45:00,33.4,12.9,37.6,37.6,37.8,39.1,36.3,59,62,57,0.456,24.9,26.2,23.7,6.072,6.3,268,9.5,8.4,0.00012,0.00017,31.7,33.3,19,0,.,.,8.62,0.00,0.00
15min,AgWx,beryljct,423,06FEB2020:23:00:00,34.1,12.88,33.5,33.9,36.3,37.7,33.5,62,67,59,0.423,24.4,25.2,22.9,2.938,3.3,264,98,6.6,0.00000,0.00002,31.7,33.3,20,0,.,.,8.62,0.00,0.00
15min,AgWx,beryljct,423,06FEB2020:23:15:00,33.7,12.88,33.6,33.6,34.5,35.3,33.6,65,67,63,0.430,23.9,24.7,23.1,2.609,1.9,209,68,3.6,-0.00008,-0.00009,31.7,33.3,20,0,.,.,8.62,0.00,0.00
15min,AgWx,beryljct,423,06FEB2020:23:30:00,33.4,12.86,37.9,37.9,35.2,37.9,32.3,64,69,59,0.455,24.1,25.0,22.6,5.13,4.6,266,10,6.0,0.00004,0.00007,31.7,33.3,19,0,.,.,8.62,0.00,0.00
15min,AgWx,bigpiney,439,06FEB2020:00:00:00,5.9,12.61,5.7,4.4,5.0,6.7,3.3,82,85,79,0.148,0.6,3.1,-1.8,6.774,5.3,201,19,7.1,0.00001,0.00001,29.2,30.3,11,0,0,0.0,5.72,0.00,0.00
15min,AgWx,bigpiney,439,06FEB2020:00:15:00,6.0,12.6,7.0,6.4,6.8,8.0,4.4,82,85,80,0.166,2.4,4.1,-0.4,5.941,6.1,189,19,8.2,0.00001,0.00002,29.2,30.3,11,0,0,0.0,5.72,0.00,0.00
15min,AgWx,bigpiney,439,06FEB2020:00:30:00,6.1,12.59,2.7,3.1,4.6,6.5,3.1,82,85,78,0.143,0.3,2.2,-1.8,5.875,6.5,198,12,8.5,0.00001,0.00002,29.2,30.4,11,0,0,0.0,5.72,0.00,0.00
15min,AgWx,bigpiney,439,06FEB2020:00:45:00,5.8,12.58,5.1,3.5,3.9,5.8,1.7,83,86,80,0.151,-0.1,2.2,-2.9,8.18,6.5,206,18,9.3,0.00001,0.00001,29.2,30.3,11,0,0,0.0,5.72,0.00,0.00
15min,AgWx,bigpiney,439,06FEB2020:01:00:00,5.4,12.56,1.6,2.1,2.7,4.2,1.4,84,86,82,0.140,-1.0,0.9,-2.7,7.212,7.6,221,8.7,8.6,0.00001,0.00001,29.2,30.3,11,0,0,0.0,5.72,0.00,0.00
15min,AgWx,bigpiney,439,06FEB2020:01:15:00,5.0,12.56,3.6,3.1,3.2,4.7,1.7,85,86,83,0.148,-0.4,1.4,-2.2,9.67,7.7,224,8.0,9.7,0.00001,0.00001,29.2,30.4,11,0,0,0.0,5.72,0.00,0.00
15min,AgWx,bigpiney,439,06FEB2020:01:30:00,4.7,12.55,5.0,4.5,3.9,4.9,2.8,84,86,82,0.156,0.1,1.6,-1.6,7.168,7.4,225,11,9.8,0.00001,0.00001,29.2,30.3,11,0,0,0.0,5.72,0.00,0.00
15min,AgWx,bigpiney,439,06FEB2020:01:45:00,4.8,12.54,6.8,6.2,5.0,6.5,3.7,84,85,82,0.169,1.2,3.1,-0.6,6.73,6.2,212,13,9.3,0.00001,0.00001,29.2,30.3,11,0,0,0.0,5.72,0.00,0.00
15min,AgWx,bigpiney,439,06FEB2020:02:00:00,5.2,12.51,6.3,5.7,5.9,6.5,5.5,83,84,82,0.163,1.8,2.6,1.2,3.968,6.2,216,15,7.9,0.00001,0.00001,29.2,30.3,11,0,0,0.0,5.72,0.00,0.00
15min,AgWx,bigpiney,439,06FEB2020:02:15:00,5.9,12.51,6.9,6.7,6.8,7.7,5.7,83,84,81,0.168,2.7,3.8,1.5,4.253,5.8,219,11,8.4,0.00001,0.00001,29.2,30.3,11,0,0,0.0,5.72,0.00,0.00
15min,AgWx,bigpiney,439,06FEB2020:02:30:00,6.6,12.5,10.1,9.0,7.7,9.0,6.5,83,84,81,0.188,3.5,4.7,2.1,0.965,2.8,216,18,5.2,-0.00001,-0.00001,29.2,30.3,11,0,0,0.0,5.72,0.00,0.00
15min,AgWx,bigpiney,439,06FEB2020:02:45:00,7.3,12.48,5.5,6.5,8.7,9.4,6.5,81,82,78,0.161,4.1,5.0,1.2,2.696,2.7,182,48,5.7,-0.00001,-0.00001,29.2,30.3,11,0,0,0.0,5.72,0.00,0.00
15min,AgWx,bigpiney,439,06FEB2020:03:00:00,7.7,12.48,4.8,3.7,4.2,6.4,3.5,82,84,78,0.152,-0.0,1.1,-0.4,1.754,1.7,95,38,3.8,-0.00002,-0.00003,29.2,30.4,11,0,0,0.0,5.72,0.00,0.00
15min,AgWx,bigpiney,439,06FEB2020:03:15:00,7.7,12.47,5.7,4.9,4.4,4.9,3.8,85,85,84,0.162,0.8,1.4,0.1,0.965,1.6,26,63,4.0,-0.00003,-0.00003,29.2,30.4,11,0,0,0.0,5.72,0.00,0.00
15min,AgWx,bigpiney,439,06FEB2020:03:30:00,7.6,12.47,5.1,4.7,4.9,5.3,4.6,85,85,84,0.159,1.3,1.8,0.9,0.548,1.3,28,35,5.3,-0.00003,-0.00004,29.2,30.3,11,0,0,0.0,5.72,0.00,0.00
15min,AgWx,bigpiney,439,06FEB2020:03:45:00,7.6,12.45,5.3,4.5,4.4,4.9,4.0,84,85,84,0.157,0.7,1.3,0.3,1.359,2.4,10,50,5.7,-0.00002,-0.00002,29.2,30.3,11,0,0,0.0,5.72,0.00,0.00
15min,AgWx,bigpiney,439,06FEB2020:04:00:00,7.7,12.45,7.1,6.5,5.7,6.5,4.5,85,86,84,0.174,2.1,2.9,0.8,0,1.1,268,48,3.7,-0.00004,-0.00005,29.2,30.3,11,0,0,0.0,5.72,0.00,0.00
15min,AgWx,bigpiney,439,06FEB2020:04:15:00,7.9,12.43,7.2,7.1,6.6,7.3,6.1,84,85,84,0.176,2.9,3.4,2.3,2.959,1.7,247,15,3.9,-0.00003,-0.00003,29.2,30.3,11,0,0,0.0,5.72,0.00,0.00
15min,AgWx,bigpiney,439,06FEB2020:04:30:00,8.2,12.43,9.0,8.2,7.8,8.7,6.9,83,84,82,0.184,3.8,4.9,2.8,0,1.3,178,39,4.2,-0.00003,-0.00004,29.2,30.4,11,0,0,0.0,5.72,0.00,0.00
15min,AgWx,bigpiney,439,06FEB2020:04:45:00,8.7,12.43,8.9,8.8,8.9,11.7,7.9,83,89,79,0.183,4.8,8.8,3.7,3.069,2.6,138,42,7.3,-0.00002,-0.00002,29.2,30.4,11,0,0,0.0,5.72,0.00,0.00
15min,AgWx,bigpiney,439,06FEB2020:05:00:00,9.2,12.42,10.1,9.9,8.8,10.2,8.4,83,84,81,0.197,4.6,6.3,3.9,2.017,2.4,139,53,4.7,-0.00002,-0.00002,29.2,30.3,11,0,0,0.0,5.72,0.00,0.00
15min,AgWx,bigpiney,439,06FEB2020:05:15:00,9.7,12.42,9.0,8.9,9.2,9.9,8.8,82,83,81,0.185,4.7,5.5,4.2,4.538,3.1,91,38,6.3,-0.00001,-0.00001,29.2,30.4,11,0,0,0.0,5.72,0.00,0.00
15min,AgWx,bigpiney,439,06FEB2020:05:30:00,10.1,12.41,8.8,8.2,8.4,8.8,8.2,82,83,81,0.184,4.1,4.3,4.0,0.636,1.5,90,51,4.2,-0.00003,-0.00004,29.2,30.3,11,0,0,0.0,5.72,0.00,0.00
15min,AgWx,bigpiney,439,06FEB2020:05:45:00,10.3,12.41,12.0,11.1,9.3,11.4,8.2,84,86,83,0.210,5.3,7.6,4.1,2.565,3.0,160,25,6.2,-0.00001,-0.00001,29.2,30.4,11,0,0,0.0,5.72,0.00,0.00
15min,AgWx,bigpiney,439,06FEB2020:06:00:00,10.7,12.4,14.4,14.1,12.5,14.1,11.0,84,85,83,0.241,8.5,10.2,6.9,5.064,5.1,152,18,7.1,0.00000,0.00001,29.2,30.3,11,0,0,0.0,5.72,0.00,0.00
15min,AgWx,bigpiney,439,06FEB2020:06:15:00,11.5,12.4,15.5,15.1,14.5,15.2,13.7,83,84,82,0.245,10.2,10.9,9.3,6.555,6.1,123,8.9,9.3,0.00001,0.00002,29.2,30.4,11,0,0,0.0,5.72,0.00,0.00
15min,AgWx,bigpiney,439,06FEB2020:06:30:00,12.4,12.4,15.3,15.0,15.1,15.5,14.7,82,83,81,0.247,10.6,11.3,9.9,2.784,5.2,124,16,9.1,0.00001,0.00002,29.2,30.4,11,0,0,0.0,5.72,0.00,0.00
15min,AgWx,bigpiney,439,06FEB2020:06:45:00,13.2,12.4,14.8,14.6,14.9,15.2,14.6,83,84,83,0.247,10.7,11.0,10.5,5.239,4.5,134,8.1,6.0,0.00000,0.00001,29.2,30.3,11,0,0,0.0,5.72,0.00,0.00
15min,AgWx,bigpiney,439,06FEB2020:07:00:00,13.8,12.4,15.3,14.7,14.6,15.1,14.1,85,86,84,0.251,10.8,11.6,10.2,8,6.0,141,10,9.1,0.00001,0.00001,29.2,30.4,11,0,0,0.0,5.72,0.00,0.00
15min,AgWx,bigpiney,439,06FEB2020:07:15:00,14.2,12.39,15.3,14.4,14.7,15.2,14.3,85,86,85,0.248,11.1,11.6,10.6,5.217,5.4,132,11,7.8,0.00000,0.00001,29.2,30.4,11,0,0,0.0,5.72,0.00,0.00
15min,AgWx,bigpiney,439,06FEB2020:07:30:00,14.4,12.41,16.0,14.6,14.2,14.6,13.8,86,88,85,0.255,10.8,11.6,10.3,7.519,5.7,147,17,9.1,0.00000,0.00001,29.2,30.4,11,2,0,0.0,5.72,0.00,0.00
15min,AgWx,bigpiney,439,06FEB2020:07:45:00,14.7,12.55,16.4,15.9,15.7,16.6,14.5,86,88,84,0.266,12.2,13.3,10.9,6.423,7.0,141,23,9.2,-0.00010,-0.00005,29.2,30.4,11,13,0,0.0,5.72,0.00,0.00
15min,AgWx,bigpiney,439,06FEB2020:08:00:00,15.0,12.85,16.1,15.4,15.5,16.0,15.2,85,86,84,0.260,11.8,12.4,11.3,8.26,6.6,144,9.1,8.3,-0.00006,-0.00001,29.2,30.4,11,33,0,0.0,5.72,0.00,0.00
15min,AgWx,bigpiney,439,06FEB2020:08:15:00,15.5,13.48,16.9,16.5,16.0,16.6,15.5,85,86,84,0.271,12.3,13.1,11.7,5.985,6.8,148,6.6,8.4,0.00001,0.00007,29.1,30.4,11,57,0,0.0,5.72,0.00,0.00
15min,AgWx,bigpiney,439,06FEB2020:08:30:00,16.0,15.02,17.1,16.7,16.1,16.8,15.5,85,86,84,0.275,12.3,13.2,11.6,8,7.4,153,8.8,9.7,0.00011,0.00018,29.1,30.4,11,81,0,0.0,5.72,0.00,0.00
15min,AgWx,bigpiney,439,06FEB2020:08:45:00,16.6,14.99,18.1,17.7,17.1,17.9,16.3,85,86,84,0.285,13.4,14.4,12.4,9.36,8.0,150,9.0,10.2,0.00019,0.00027,29.2,30.4,11,105,0,0.0,5.72,0.00,0.00
15min,AgWx,bigpiney,439,06FEB2020:09:00:00,17.4,15,18.0,17.3,17.4,17.9,16.9,85,85,84,0.280,13.5,14.1,12.9,4.757,7.0,148,6.3,9.1,0.00026,0.00034,29.1,30.4,11,137,0,0.0,5.72,0.00,0.00